Showing default

NEXTSAT-2, 56743

Orbit data source: Space-Track

NEXTSAT-2, 56743 is a payload satellite owned by KAIST (KR) in SSO that was launched on Thu, 25 May 2023 UTC via an NURI launch vehicle from the Naro Space Center, South Korea (NSC). Payload-class satellites include a variety of spacecraft equipped with specific instruments for various scientific and technological missions. These include communications satellites like Starlink; space stations such as the ISS; scientific satellites like the Hubble; Earth observation satellites from companies like Planet Labs, Umbra, and HawkEye 360; GPS; miniature CubeSats for education and research; and military/defense satellites.

Loading next visibility...
Identifier
56743, 2023-072A
Orbit
SSO
Country
Flag of UnknownUnknown / SKOR
Related business
Manufacturer
SatRec Initiative
Mission
Operational Civil Ast/Tech
Bus & Motor
NEXTSAT, Unknown motor
Mass
180 kg wet, 180 kg dry
Launch date (UTC)
2023-05-25 (2 years ago)
Launch vehicle
NURI
Launch site
Naro Space Center, South Korea (NSC)
Object type
Payload
Rocket body
Debris
Shape & HBR
Box + 1 Pan, 2.6 m
Radar Cross Section
3.727 m², Medium (>0.1 m² and < 1m²)

Expand to show TLE details & history
Last TLE update: 9 hours ago

TLE from 9 hours ago
0 NEXTSAT-2
1 56743U 23072A   25286.65815152  .00016577  00000-0  69704-3 0  9990
2 56743  97.5348 116.9281 0006858 154.4616 205.6961 15.23463905132008
Epoch: 2025-10-13T15:47Z
TLE epoch observation values (Epoch: 2025-10-13T15:47:44.291Z)
Latitude
0.00002°
Longitude
-142.46422°
Altitude
502.742 km
Speed
7.611 km/s
True Right ascension
07h 47m 42s
True Declination
0° 00' 00"
Sunlit
Object was in daylight at epoch
Visualization orbit readout
Latitude
Unknown
Longitude
Unknown
Altitude
Unknown
Speed
Unknown
Apparent Right ascension
Unknown
Apparent Declination
Unknown
Sunlit
N/A
Visualization observer readout
Local Sidereal Time
19:40:44
Azimuth
Unknown
Elevation
Unknown
Doppler factor
Unknown
Orbital elements
Apogee altitude
497.08 km
Perigee altitude
487.657 km
Semi-major axis
6,870.506 km
Eccentricity
0.00069
Inclination
97.5348°
RAAN
116.9281°
Arg. of periapsis
154.4616°
True anomaly
205.66205°
Mean anomaly
205.6961°
Eccentric anomaly
205.67907°
Mean motion
3.81119 °/min
Orbital period
94.46 mins
BSTAR
0.00069704
Loading maneuver chart data...
Computing Atmospheric mass density...
Loading historical data...
Loading historical data...
Loading historical data...
Loading historical data...
Loading historical data...
Loading historical data...
Loading historical data...

Documentation

Showing up to 5 results
|